PIESAT-2 10 (62334 NORAD) Tracking and Keplerian Element Data

This shows tracking and keplerian element data for the satellite.

Feedback or suggestion? Click here.




ElementValue
Catalog62334
NamePIESAT-2 10
Epoch Orbit739
Epoch Day34.69292313
Epoch Year2025
RAAN343.9901
Inclination97.4978
Eccentricity0.0003804
Argument of Perigee92.3527
Mean Anonmoly267.814
Mean Motion15.14089684
Decay Rate0.00012661
L11 62334U 24241B 25034.69292313 .00012661 00000+0 69849-3 0 9994
L22 62334 97.4978 343.9901 0003804 92.3527 267.8140 15.14089684 7399



Live tracking and technical data element details for PIESAT-2 10 (NORAD 62334). PIESAT-2 10 can be tracked NOW for your location showing map with azimuth and elevation plus other details from your city location.







IsCatalogInMostPopularTable: catalog: 62334, numindb: 9
Update: records affected: 1



GetName: 62334 PIESAT-2 10

Hit Count: updated at: Sun, 18 May 2025 22:56:01 GMT